OneWeb SL0124

operational
NORAD ID: 47276 Int'l Des: 2020-100 Owner: ONEWEB Country: UK Constellation: oneweb
LEOCIRCULARPOLARONEWEB_TYPE

About OneWeb SL0124

Description loading...

Live Position

Loading 3D Globe...

Upcoming Passes

Altitude History

Altitude vs Time

uPlot chart will show altitude changes over time

Two-Line Element Set

1 47276U 20100U 25304.78337994 .00000568 00000-0 15430-2 0 9997
2 47276 87.8966 36.0204 0001937 103.8148 256.3196 13.12445839234687
Epoch: Oct 31, 2025 • Age: 8 hours

Current Status

Altitude 1225.7 km
Velocity 7.24 km/s
Sub-Earth Point -30.71°S, 128.69°E
Launch Date Dec 18, 2020
Age 4.8 years
Type internet

Technical Details

Classification Payload
Mass 148.00 kg
Dry Mass 140.00 kg
Total Mass 148.00 kg
Length 1.30 m
Diameter 1.00 m
Span 5.00 m
Shape Trapezoid+2 pan
Manufacturer ONEWUS
Bus Type ARROW
Phase Status In Orbit
Owner/State ONEWEB/UK

Large Constellations

Loading constellations...